| time (UTC) | temp C | wind direction | speed KPH | gust KPH | rain 1hr cm | rain 24hr cm | rain mn cm | humidity % | barometer mb |
| 20260831054530 | 21 | 259 | 0.0 | 1.6 | 0.00 | 0.00 | 0.00 | 35 | 1026.1 |
| 20260831053028 | 21 | 260 | 0.0 | 4.8 | 0.00 | 0.00 | 0.00 | 32 | 1026.1 |
| 20260831051526 | 21 | 222 | 1.6 | 4.8 | 0.00 | 0.00 | 0.00 | 33 | 1026.1 |
| 20260831050025 | 21 | 185 | 0.0 | 6.4 | 0.00 | 0.00 | 0.00 | 32 | 1026.2 |
| 20260831044607 | 21 | 121 | 0.0 | 9.7 | 0.00 | 0.00 | 0.00 | 31 | 1026.3 |
| 20260831043050 | 20 | 124 | 3.2 | 8.0 | 0.00 | 0.00 | 0.00 | 35 | 1026.3 |
| 20260831041551 | 20 | 265 | 1.6 | 9.7 | 0.00 | 0.00 | 0.00 | 30 | 1026.6 |
| 20260831040042 | 20 | 282 | 0.0 | 4.8 | 0.00 | 0.00 | 0.00 | 32 | 1026.7 |
| 20260831034538 | 20 | 204 | 0.0 | 4.8 | 0.00 | 0.00 | 0.00 | 40 | 1026.9 |
| 20260831033039 | 20 | 208 | 0.0 | 8.0 | 0.00 | 0.00 | 0.00 | 41 | 1027.0 |
| 20260831031517 | 20 | 39 | 0.0 | 4.8 | 0.00 | 0.00 | 0.00 | 37 | 1027.3 |
| 20260831030101 | 20 | 150 | 0.0 | 4.8 | 0.00 | 0.00 | 0.00 | 41 | 1027.6 |
| 20260831024528 | 19 | 242 | 0.0 | 4.8 | 0.00 | 0.00 | 0.00 | 42 | 1027.8 |
| 20260831023027 | 19 | 286 | 1.6 | 9.7 | 0.00 | 0.00 | 0.00 | 44 | 1028.0 |
| 20260831021556 | 19 | 189 | 0.0 | 1.6 | 0.00 | 0.00 | 0.00 | 50 | 1028.3 |
| 20260831020049 | 19 | 212 | 0.0 | 1.6 | 0.00 | 0.00 | 0.00 | 50 | 1028.6 |
| 20260831014542 | 18 | 242 | 0.0 | 1.6 | 0.00 | 0.00 | 0.00 | 48 | 1028.8 |
| 20260831013042 | 18 | 190 | 0.0 | 3.2 | 0.00 | 0.00 | 0.00 | 51 | 1029.1 |
| 20260831011538 | 17 | 258 | 0.0 | 0.0 | 0.00 | 0.00 | 0.00 | 52 | 1029.3 |
| 20260831010039 | 17 | 258 | 0.0 | 3.2 | 0.00 | 0.00 | 0.00 | 50 | 1029.4 |
| 20260831004524 | 16 | 262 | 0.0 | 0.0 | 0.00 | 0.00 | 0.00 | 64 | 1029.6 |
| 20260831003020 | 16 | 281 | 0.0 | 0.0 | 0.00 | 0.00 | 0.00 | 66 | 1029.7 |
| 20260831001515 | 15 | 281 | 0.0 | 0.0 | 0.00 | 0.00 | 0.00 | 71 | 1029.8 |
| 20260831000012 | 13 | 282 | 0.0 | 0.0 | 0.00 | 0.00 | 0.00 | 75 | 1030.0 |
| 20260830234605 | 12 | 289 | 0.0 | 0.0 | 0.00 | 0.00 | 0.00 | 82 | 1030.1 |
| 20260830233056 | 11 | 289 | 0.0 | 0.0 | 0.00 | 0.00 | 0.00 | 90 | 1030.1 |
| 20260830231551 | 9 | 289 | 0.0 | 0.0 | 0.00 | 0.00 | 0.00 | 95 | 1030.2 |
| 20260830230048 | 8 | 286 | 0.0 | 0.0 | 0.00 | 0.00 | 0.00 | 96 | 1030.4 |
| 20260830224538 | 7 | 286 | 0.0 | 0.0 | 0.00 | 0.00 | 0.00 | 96 | 1030.5 |
| 20260830223038 | 7 | 286 | 0.0 | 0.0 | 0.00 | 0.00 | 0.00 | 96 | 1030.4 |
| 20260830221534 | 6 | 286 | 0.0 | 0.0 | 0.00 | 0.00 | 0.00 | 96 | 1030.5 |
| 20260830220025 | 5 | 296 | 0.0 | 0.0 | 0.00 | 0.00 | 0.00 | 96 | 1030.3 |
| 20260830214520 | 4 | 296 | 0.0 | 0.0 | 0.00 | 0.00 | 0.00 | 96 | 1030.3 |
| 20260830213014 | 3 | 296 | 0.0 | 0.0 | 0.00 | 0.00 | 0.00 | 93 | 1030.2 |
| 20260830211508 | 2 | 296 | 0.0 | 0.0 | 0.00 | 0.00 | 0.00 | 93 | 1030.0 |
| 20260830210005 | 2 | 296 | 0.0 | 0.0 | 0.00 | 0.00 | 0.00 | 92 | 1029.7 |
| 20260830204501 | 2 | 296 | 0.0 | 0.0 | 0.00 | 0.00 | 0.00 | 92 | 1029.6 |
| 20260830203054 | 1 | 317 | 0.0 | 0.0 | 0.00 | 0.00 | 0.00 | 91 | 1029.5 |
| 20260830201552 | 2 | 317 | 0.0 | 0.0 | 0.00 | 0.00 | 0.00 | 91 | 1029.2 |
| 20260830200100 | 2 | 317 | 0.0 | 0.0 | 0.00 | 0.00 | 0.00 | 91 | 1029.0 |
| 20260830194552 | 2 | 317 | 0.0 | 0.0 | 0.00 | 0.00 | 0.00 | 91 | 1029.0 |
| 20260830193016 | 2 | 317 | 0.0 | 0.0 | 0.00 | 0.00 | 0.00 | 91 | 1029.1 |
| 20260830191514 | 2 | 317 | 0.0 | 0.0 | 0.00 | 0.00 | 0.00 | 91 | 1029.2 |
| 20260830190010 | 2 | 317 | 0.0 | 0.0 | 0.00 | 0.00 | 0.00 | 91 | 1029.1 |
| 20260830184519 | 2 | 317 | 0.0 | 0.0 | 0.00 | 0.00 | 0.00 | 90 | 1028.9 |
| 20260830183015 | 3 | 317 | 0.0 | 0.0 | 0.00 | 0.00 | 0.00 | 91 | 1028.9 |
| 20260830181506 | 2 | 317 | 0.0 | 0.0 | 0.00 | 0.00 | 0.00 | 90 | 1028.9 |
| 20260830180100 | 3 | 317 | 0.0 | 0.0 | 0.00 | 0.00 | 0.00 | 90 | 1028.9 |
| 20260830174615 | 3 | 317 | 0.0 | 0.0 | 0.00 | 0.00 | 0.00 | 91 | 1028.9 |
| 20260830173112 | 2 | 317 | 0.0 | 0.0 | 0.00 | 0.00 | 0.00 | 90 | 1028.9 |
| 20260830171558 | 3 | 317 | 0.0 | 3.2 | 0.00 | 0.00 | 0.00 | 89 | 1028.9 |
| 20260830170046 | 3 | 318 | 0.0 | 0.0 | 0.00 | 0.00 | 0.00 | 90 | 1028.8 |
| 20260830164546 | 3 | 318 | 0.0 | 0.0 | 0.00 | 0.00 | 0.00 | 90 | 1028.8 |
| 20260830163042 | 3 | 318 | 0.0 | 0.0 | 0.00 | 0.00 | 0.00 | 88 | 1028.8 |
| 20260830161538 | 4 | 318 | 0.0 | 0.0 | 0.00 | 0.00 | 0.00 | 89 | 1028.9 |
| 20260830160031 | 4 | 318 | 0.0 | 0.0 | 0.00 | 0.00 | 0.00 | 89 | 1029.0 |
| 20260830154530 | 5 | 318 | 0.0 | 0.0 | 0.00 | 0.00 | 0.00 | 89 | 1029.1 |
| 20260830153027 | 5 | 318 | 0.0 | 0.0 | 0.00 | 0.00 | 0.00 | 88 | 1028.9 |
| 20260830151525 | 5 | 318 | 0.0 | 0.0 | 0.00 | 0.00 | 0.00 | 88 | 1029.1 |
| 20260830150055 | 5 | 318 | 0.0 | 0.0 | 0.00 | 0.00 | 0.00 | 88 | 1029.2 |
| 20260830144557 | 5 | 318 | 0.0 | 0.0 | 0.00 | 0.00 | 0.00 | 88 | 1029.3 |
| 20260830143046 | 5 | 318 | 0.0 | 0.0 | 0.00 | 0.00 | 0.00 | 87 | 1029.4 |
| 20260830141544 | 6 | 318 | 0.0 | 0.0 | 0.00 | 0.00 | 0.00 | 88 | 1029.3 |
| 20260830140043 | 6 | 318 | 0.0 | 0.0 | 0.00 | 0.00 | 0.00 | 87 | 1029.5 |
| 20260830134545 | 6 | 318 | 0.0 | 0.0 | 0.00 | 0.00 | 0.00 | 87 | 1029.4 |
| 20260830133034 | 6 | 318 | 0.0 | 0.0 | 0.00 | 0.00 | 0.00 | 86 | 1029.5 |
| 20260830131535 | 6 | 318 | 0.0 | 0.0 | 0.00 | 0.00 | 0.00 | 86 | 1029.5 |
| 20260830130030 | 6 | 318 | 0.0 | 0.0 | 0.00 | 0.00 | 0.00 | 85 | 1029.3 |
| 20260830124537 | 6 | 318 | 0.0 | 0.0 | 0.00 | 0.00 | 0.00 | 85 | 1029.4 |
| 20260830123023 | 7 | 318 | 0.0 | 0.0 | 0.00 | 0.00 | 0.00 | 84 | 1029.3 |
| 20260830121522 | 7 | 318 | 0.0 | 0.0 | 0.00 | 0.00 | 0.00 | 83 | 1029.3 |
| 20260830120025 | 7 | 318 | 0.0 | 1.6 | 0.00 | 0.00 | 0.00 | 83 | 1029.2 |
| 20260830114522 | 8 | 318 | 0.0 | 0.0 | 0.00 | 0.00 | 0.00 | 83 | 1029.1 |
| 20260830113016 | 8 | 318 | 0.0 | 0.0 | 0.00 | 0.00 | 0.00 | 83 | 1029.1 |
| 20260830111516 | 8 | 318 | 0.0 | 0.0 | 0.00 | 0.00 | 0.00 | 84 | 1028.9 |
| 20260830110015 | 8 | 318 | 0.0 | 0.0 | 0.00 | 0.00 | 0.00 | 83 | 1028.9 |
| 20260830104517 | 8 | 14 | 0.0 | 0.0 | 0.00 | 0.00 | 0.00 | 81 | 1028.7 |
| 20260830103010 | 8 | 14 | 0.0 | 0.0 | 0.00 | 0.00 | 0.00 | 80 | 1028.6 |
| 20260830101510 | 8 | 14 | 0.0 | 0.0 | 0.00 | 0.00 | 0.00 | 80 | 1028.4 |
| 20260830100023 | 9 | 14 | 0.0 | 0.0 | 0.00 | 0.00 | 0.00 | 78 | 1028.3 |
| 20260830094509 | 10 | 14 | 0.0 | 3.2 | 0.00 | 0.00 | 0.00 | 76 | 1028.1 |
| 20260830093110 | 10 | 4 | 0.0 | 0.0 | 0.00 | 0.00 | 0.00 | 77 | 1028.1 |
| 20260830091537 | 10 | 4 | 0.0 | 0.0 | 0.00 | 0.00 | 0.00 | 74 | 1028.0 |
| 20260830090037 | 11 | 62 | 0.0 | 0.0 | 0.00 | 0.00 | 0.00 | 73 | 1027.7 |
| 20260830084532 | 11 | 62 | 0.0 | 4.8 | 0.00 | 0.00 | 0.00 | 72 | 1027.7 |
| 20260830083034 | 12 | 277 | 0.0 | 3.2 | 0.00 | 0.00 | 0.00 | 69 | 1027.4 |
| 20260830083031 | 12 | 277 | 0.0 | 3.2 | 0.00 | 0.00 | 0.00 | 68 | 1027.4 |
| 20260830081532 | 15 | 274 | 0.0 | 0.0 | 0.00 | 0.00 | 0.00 | 60 | 1027.2 |
| 20260830080031 | 16 | 274 | 0.0 | 0.0 | 0.00 | 0.00 | 0.00 | 53 | 1027.0 |
| 20260830074524 | 18 | 215 | 0.0 | 0.0 | 0.00 | 0.00 | 0.00 | 47 | 1026.9 |
| 20260830073027 | 19 | 210 | 0.0 | 0.0 | 0.00 | 0.00 | 0.00 | 41 | 1026.9 |
| 20260830071528 | 20 | 210 | 0.0 | 0.0 | 0.00 | 0.00 | 0.00 | 42 | 1026.8 |
| 20260830070022 | 20 | 210 | 0.0 | 3.2 | 0.00 | 0.00 | 0.00 | 43 | 1026.8 |
| 20260830064548 | 20 | 209 | 0.0 | 1.6 | 0.00 | 0.00 | 0.00 | 44 | 1026.8 |
| 20260830063047 | 20 | 217 | 0.0 | 0.0 | 0.00 | 0.00 | 0.00 | 41 | 1026.7 |
| 20260830061540 | 20 | 217 | 0.0 | 1.6 | 0.00 | 0.00 | 0.00 | 41 | 1026.7 |
| 20260830060039 | 20 | 218 | 0.0 | 6.4 | 0.00 | 0.00 | 0.00 | 41 | 1026.8 |